User: anonymous   Login
Location: Champignolles
(47.0543°N, 4.5663°E)
Time: 16:25:08
(UTC+00:00)
Language:

MOS 1 Rocket - Orbit

View from above orbital plane
View from above orbital plane
View from above satellite
View from above satellite

Ground track
Ground track

The orbit data is extracted from the following two-line orbital elements,

1 17528U 87018B   21059.02887504  .00000073  00000-0  25162-4 0  9998
2 17528  97.4023 243.9756 0152310  21.6982 339.0576 14.51032985795895
Epoch (UTC): 28 February 2021 00:41:34
Eccentricity: 0.0152310
inclination: 97.4023°
perigee height: 614 km
apogee height: 830 km
right ascension of ascending node: 243.9756°
argument of perigee: 21.6982°
revolutions per day: 14.51032985
mean anomaly at epoch: 339.0576°
orbit number at epoch: 79589

The dashed part of the orbit path shows where the satellite is in the earth's shadow,  

DLR